Zurück zum Katalog

INHA-ROSAT

AktivWissenschaftSSO
NORAD 66653·PAYLOAD·🇰🇷 South Korea

Gestartet Nov 26, 2025 von Naro Space Center

Loading…

Nächste Überflüge (nächste 24 Stunden)

TLE

AktuellSource: Space-Track

Epoche: Sep 14, 2026, 02:04 UTC

1 66653U 25274D   26257.08661220  .00001530  00000-0  15241-3 0  9998
2 66653  97.7482 184.8145 0013978  63.1277 297.1369 14.92993249 43477

Verfolge INHA-ROSAT in Echtzeit mit AllMySat

Download on the App Store